Flag for U.S.A. Weather past 2 weeks in Rancho Cucamonga, California, U.S.A.

Now
65 °F

Mostly cloudy.


Feels Like: 65 °F
Forecast: 53 / 63 °F
Wind: 6 mph from Northeast

Location: Ontario International Airport

Current Time: Jan 29, 2015 at 11:04:33 PM

Latest Report: Jan 29, 2015 at 9:53 PM


Visibility: 10 mi

Pressure: 29.99 "Hg

Humidity: 40%

Dew point: 40 °F

Location of Rancho CucamongaLocation

Historic Weather in Rancho Cucamonga — Graph

°F

Rancho Cucamonga temperature yesterday

Maximum temperature yesterday: 74 °F (at 12:53 PM)
Minimum temperature yesterday: 51 °F (at 4:53 AM)
Average temperature yesterday: 62 °F

Past Weeks' High & Low Weather Summary

 TemperatureHumidityPressure
High81 °F (Jan 25, 12:53 PM)93% (Jan 20, 8:53 PM)30.26 "Hg (Jan 20, 8:53 PM)
Low44 °F (Jan 15, 3:53 AM)6% (Jan 23, 4:53 PM)29.90 "Hg (Jan 20, 3:53 PM)
Average62 °F45%30.09 "Hg
* Reported Jan 14 9:53 PM — Jan 29 9:53 PM, Rancho Cucamonga, Weather by CustomWeather, © 2014

Note: Actual official high and low records may vary slightly from our data, if they occured in-between our weather recording intervals... More about our weather records

Advertising

Rancho Cucamonga weather history for previous 24 hours

 ConditionsComfort  
Time TempWeatherWind HumidityBarometerVisibility
9:53 PM
Jan 29
65 °FMostly cloudy.6 mph40%29.99 "Hg10 mi
8:53 PM63 °FOvercast.5 mph52%30.01 "Hg10 mi
7:53 PM64 °FOvercast.7 mph50%30.01 "Hg10 mi
6:53 PM66 °FOvercast.9 mph43%30.01 "Hg10 mi
5:53 PM67 °FLight rain. Overcast.7 mph42%29.98 "Hg10 mi
4:53 PM70 °FMostly cloudy.7 mph30%29.97 "Hg10 mi
3:53 PM71 °FMore clouds than sun.7 mph34%29.97 "Hg10 mi
2:53 PM72 °FMore clouds than sun.8 mph30%29.96 "Hg10 mi
1:53 PM74 °FMore clouds than sun.9 mph26%29.96 "Hg10 mi
12:53 PM75 °FOvercast.8 mph22%29.97 "Hg10 mi
11:53 AM73 °FMore clouds than sun.3 mph30%30.01 "Hg10 mi
10:53 AM70 °FMostly cloudy.No wind38%30.05 "Hg10 mi
9:53 AM66 °FMostly cloudy.No wind50%30.05 "Hg10 mi
8:53 AM63 °FMostly cloudy.3 mph54%30.04 "Hg10 mi
7:53 AM58 °FMostly cloudy.5 mph60%30.03 "Hg10 mi
6:53 AM60 °FMostly cloudy.5 mph52%30.02 "Hg10 mi
5:53 AM57 °FPassing clouds.5 mph62%30.02 "Hg10 mi
4:53 AM57 °FPassing clouds.No wind62%30.01 "Hg10 mi
3:53 AM58 °FPassing clouds.No wind58%30.02 "Hg10 mi
2:53 AM57 °FPassing clouds.5 mph67%30.03 "Hg10 mi
1:53 AM57 °FPassing clouds.No wind67%30.03 "Hg10 mi
12:53 AM59 °FPassing clouds.No wind60%30.03 "Hg10 mi
11:53 PM
Jan 28
59 °FPassing clouds.3 mph62%30.05 "Hg10 mi
Weather by CustomWeather, © 2014

See weather overviewHow to use our weather pages